Weather in Dizmino

Russia / Udmurt Republic     58°13′01″N   52°08′52″E
temp.,
°C
wind,
m/s
gust,
m/s
humid.,
%
clouds,
%
prec.,
mm/h
press.,
hPa
HPBL,
m
28 june, tue
tue2801:00+4n24865 0.0 101584
04:00+3nnw279046 0.0 1016171
07:00+8nnw59625 0.0 10161143
10:00+9nnw5963100 0.1 10161449
13:00+10nnw695792 0.2 10161742
16:00+11nnw61053100 0.3 10171833
19:00+10n41165100 0.0 10171469
22:00+6n4107972 0.0 1018641
29 june, wed
wed2901:00+6nw3107888 0.0 1018367
04:00+4nw279151 0.0 1018154
07:00+10nnw48660 0.0 1018382
10:00+15nnw58470 0.0 10161306
13:00+18n58375 0.0 10151709
16:00+19nnw573991 0.0 10141727
19:00+16nnw495199 0.0 1013895
22:00+11wnw3967100 0.0 1013185
30 june, thu
thu3001:00+9wnw31073100 0.0 1011195
04:00+9nw3117299 0.0 1010328
07:00+10nne4117989 0.2 1010556
10:00+13nne685292 0.3 10111919
13:00+13nne795182 0.0 10121835
16:00+11nne5106295 0.1 10141254
19:00+13nne5858100 0.0 10141262
22:00+9n256992 0.0 1015111
1 july, fri
fri101:00+7n237660 0.0 101656
04:00+5nnw24845 0.0 101780
07:00+11n37635 0.0 1016308
10:00+15nnw4748100 0.0 10151381
13:00+19n473828 0.0 10141863
16:00+20n57395 0.0 10132166
19:00+18nnw37575 0.0 1013381
22:00+13nnw22775 0.0 101318
2 july, sat
sat201:00+11nw11825 0.0 101310
04:00+10wnw228383 0.0 101318
07:00+15wnw2469100 0.0 1012201
10:00+20wnw33525 0.0 1011740
13:00+23w34435 0.0 10101721
16:00+24wnw454757 0.0 10101852
19:00+20wnw47734 0.2 1010252
22:00+15nnw389384 0.3 1011167